Weather History for Medford, WI

Change the Weather History Date:

Saturday, August 10, 2013

  Actual Average Record
Temperature  
Mean Temperature 59 °F -  
Max Temperature 69 °F 77 °F 90 °F (1992)
Min Temperature 49 °F 54 °F 33 °F (2002)
Degree Days  
Heating Degree Days 6    
Growing Degree Days 9 (Base 50)    
Moisture  
Dew Point 51 °F    
Average Humidity 72    
Maximum Humidity 99    
Minimum Humidity 45    
Precipitation  
Precipitation 0.00 in - - ()
Sea Level Pressure  
Sea Level Pressure 30.04 in    
Wind  
Wind Speed 3 mph (WNW)    
Max Wind Speed 8 mph    
Max Gust Speed -    
Visibility 10 miles    
Events      
Averages and records for this station are not official NWS values.
T = Trace of Precipitation, MM = Missing Value Source: NWS Daily Summary

Daily Weather History Graph

Daily Weather History Graph

Search for Another Location

Airport:

Trip Planner

Search our weather history database for the weather conditions in past years. The results will help you decide how hot, cold, wet, or windy it might be!

Date:

Astronomy

Aug. 10, 2013 Rise Set
Actual Time 5:57 AM CDT 8:15 PM CDT
Civil Twilight 5:24 AM CDT 8:47 PM CDT
Nautical Twilight 4:43 AM CDT 9:27 PM CDT
Astronomical Twilight 3:58 AM CDT 10:13 PM CDT
Moon 9:57 AM CDT (8/10) 9:42 PM CDT (8/10)
Length of Visible Light 15h 23m
Length of Day
14h 18m
Waxing Crescent, 14% of the Moon is Illuminated
Aug 10
Waxing Crescent
Aug 14
First Quarter
Aug 20
Full
Aug 28
Last Quarter
Sep 5
New

Hourly Weather History & Observations

Time (CDT) Temp. Dew Point Humidity Pressure Visibility Wind Dir Wind Speed Gust Speed Precip Events Conditions
12:15 AM 59.5 °F 51.8 °F 76% 30.00 in 10.0 mi NW 3.5 mph - N/A   Overcast
12:35 AM 59.5 °F 51.4 °F 75% 30.00 in 10.0 mi NNW 4.6 mph - N/A   Overcast
12:55 AM 59.4 °F 51.3 °F 75% 30.00 in 10.0 mi NNW 4.6 mph - N/A   Overcast
1:15 AM 59.5 °F 50.7 °F 73% 30.00 in 10.0 mi NNW 4.6 mph - N/A   Overcast
1:35 AM 59.0 °F 51.1 °F 75% 30.01 in 10.0 mi NW 3.5 mph - N/A   Overcast
1:55 AM 58.6 °F 51.8 °F 78% 30.01 in 10.0 mi Calm Calm - N/A   Overcast
2:15 AM 58.1 °F 52.3 °F 81% 30.01 in 10.0 mi WNW 3.5 mph - N/A   Overcast
2:35 AM 57.6 °F 52.9 °F 84% 30.02 in 10.0 mi Calm Calm - N/A   Overcast
2:55 AM 57.2 °F 52.9 °F 85% 30.02 in 10.0 mi NNW 3.5 mph - N/A   Overcast
3:15 AM 58.1 °F 51.8 °F 80% 30.02 in 10.0 mi North 4.6 mph - N/A   Overcast
3:35 AM 57.9 °F 52.0 °F 81% 30.03 in 10.0 mi Calm Calm - N/A   Overcast
3:55 AM 57.2 °F 52.0 °F 83% 30.03 in 10.0 mi Calm Calm - N/A   Overcast
4:15 AM 57.6 °F 52.7 °F 84% 30.03 in 10.0 mi Calm Calm - N/A   Overcast
4:35 AM 57.0 °F 52.9 °F 86% 30.04 in 10.0 mi SW 3.5 mph - N/A   Overcast
4:55 AM 56.8 °F 52.7 °F 86% 30.04 in 10.0 mi West 3.5 mph - N/A   Overcast
5:15 AM 56.5 °F 52.7 °F 87% 30.04 in 10.0 mi Calm Calm - N/A   Overcast
5:35 AM 56.5 °F 52.7 °F 87% 30.04 in 10.0 mi Calm Calm - N/A   Overcast
5:55 AM 56.3 °F 52.7 °F 88% 30.04 in 10.0 mi Calm Calm - N/A   Overcast
6:15 AM 55.9 °F 52.9 °F 89% 30.05 in 10.0 mi Calm Calm - N/A   Overcast
6:35 AM 56.3 °F 52.9 °F 88% 30.05 in 10.0 mi Calm Calm - N/A   Overcast
6:55 AM 56.5 °F 53.1 °F 88% 30.05 in 10.0 mi Calm Calm - N/A   Overcast
7:15 AM 57.2 °F 52.9 °F 85% 30.05 in 10.0 mi Calm Calm - N/A   Overcast
7:35 AM 57.6 °F 52.9 °F 84% 30.06 in 10.0 mi Calm Calm - N/A   Overcast
7:55 AM 58.3 °F 52.7 °F 82% 30.05 in 10.0 mi NW 3.5 mph - N/A   Overcast
8:15 AM 59.0 °F 52.7 °F 80% 30.05 in 10.0 mi North 3.5 mph - N/A   Overcast
8:35 AM 59.9 °F 52.0 °F 75% 30.05 in 10.0 mi North 3.5 mph - N/A   Overcast
8:55 AM 60.8 °F 52.9 °F 75% 30.05 in 10.0 mi NNW 3.5 mph - N/A   Overcast
9:15 AM 61.2 °F 52.9 °F 74% 30.06 in 10.0 mi Calm Calm - N/A   Overcast
9:35 AM 61.7 °F 53.1 °F 73% 30.06 in 10.0 mi Calm Calm - N/A   Overcast
9:55 AM 63.0 °F 53.4 °F 71% 30.06 in 10.0 mi West 3.5 mph - N/A   Overcast
10:15 AM 63.7 °F 52.3 °F 67% 30.07 in 10.0 mi NNW 4.6 mph - N/A   Overcast
10:35 AM 64.4 °F 52.2 °F 64% 30.07 in 10.0 mi NW 3.5 mph - N/A   Overcast
10:55 AM 65.1 °F 51.1 °F 60% 30.07 in 10.0 mi West 8.1 mph - N/A   Overcast
11:15 AM 66.2 °F 52.2 °F 61% 30.07 in 10.0 mi WNW 4.6 mph - N/A   Overcast
11:35 AM 66.9 °F 52.0 °F 59% 30.07 in 10.0 mi WNW 3.5 mph - N/A   Overcast
11:55 AM 68.4 °F 52.7 °F 57% 30.07 in 10.0 mi NW 8.1 mph - N/A   Overcast
12:15 PM 67.1 °F 51.1 °F 56% 30.07 in 10.0 mi West 5.8 mph - N/A   Overcast
12:35 PM 66.7 °F 51.6 °F 58% 30.07 in 10.0 mi WNW 6.9 mph - N/A   Overcast
12:55 PM 66.4 °F 50.5 °F 57% 30.07 in 10.0 mi WNW 4.6 mph - N/A   Overcast
1:15 PM 66.9 °F 50.5 °F 56% 30.07 in 10.0 mi West 6.9 mph - N/A   Overcast
1:35 PM 67.6 °F 48.7 °F 51% 30.07 in 10.0 mi WNW 4.6 mph - N/A   Overcast
1:55 PM 68.9 °F 47.7 °F 47% 30.07 in 10.0 mi NW 4.6 mph - N/A   Overcast
2:15 PM 69.3 °F 47.3 °F 45% 30.06 in 10.0 mi NW 3.5 mph - N/A   Overcast
2:35 PM 68.7 °F 47.3 °F 46% 30.06 in 10.0 mi West 4.6 mph - N/A   Overcast
2:55 PM 68.9 °F 48.7 °F 49% 30.06 in 10.0 mi NNW 5.8 mph - N/A   Overcast
3:15 PM 69.1 °F 50.7 °F 52% 30.06 in 10.0 mi West 4.6 mph - N/A   Overcast
3:35 PM 68.9 °F 49.6 °F 50% 30.06 in 10.0 mi West 4.6 mph - N/A   Overcast
3:55 PM 68.9 °F 48.4 °F 48% 30.05 in 10.0 mi West 4.6 mph - N/A   Overcast
4:15 PM 68.7 °F 49.5 °F 50% 30.05 in 10.0 mi NW 3.5 mph - N/A   Overcast
4:35 PM 68.7 °F 48.7 °F 49% 30.05 in 10.0 mi West 5.8 mph - N/A   Overcast
4:55 PM 68.5 °F 50.5 °F 53% 30.04 in 10.0 mi West 5.8 mph - N/A   Overcast
5:15 PM 68.5 °F 51.4 °F 54% 30.04 in 10.0 mi West 6.9 mph - N/A   Overcast
5:35 PM 68.0 °F 50.4 °F 53% 30.03 in 10.0 mi West 6.9 mph - N/A   Overcast
5:55 PM 68.2 °F 49.5 °F 51% 30.03 in 10.0 mi West 6.9 mph - N/A   Overcast
6:15 PM 68.7 °F 50.7 °F 53% 30.02 in 10.0 mi West 6.9 mph - N/A   Overcast
6:35 PM 68.2 °F 50.0 °F 52% 30.02 in 10.0 mi West 5.8 mph - N/A   Scattered Clouds
6:55 PM 67.1 °F 49.1 °F 52% 30.02 in 10.0 mi West 5.8 mph - N/A   Clear
7:15 PM 67.3 °F 50.2 °F 54% 30.02 in 10.0 mi West 5.8 mph - N/A   Scattered Clouds
7:35 PM 66.0 °F 50.5 °F 57% 30.02 in 10.0 mi West 4.6 mph - N/A   Scattered Clouds
7:55 PM 64.4 °F 51.1 °F 62% 30.02 in 10.0 mi West 3.5 mph - N/A   Clear
8:15 PM 61.0 °F 51.6 °F 71% 30.02 in 10.0 mi Calm Calm - N/A   Clear
8:35 PM 57.6 °F 52.0 °F 82% 30.02 in 10.0 mi WSW 3.5 mph - N/A   Clear
8:55 PM 56.8 °F 51.8 °F 83% 30.02 in 10.0 mi WSW 3.5 mph - N/A   Clear
9:15 PM 54.0 °F 51.4 °F 91% 30.02 in 10.0 mi Calm Calm - N/A   Clear
9:35 PM 52.7 °F 51.1 °F 94% 30.01 in 10.0 mi Calm Calm - N/A   Clear
9:55 PM 53.8 °F 52.0 °F 94% 30.01 in 10.0 mi Calm Calm - N/A   Clear
10:15 PM 52.3 °F 51.4 °F 97% 30.01 in 10.0 mi Calm Calm - N/A   Clear
10:35 PM 51.8 °F 51.1 °F 97% 30.01 in 10.0 mi Calm Calm - N/A   Clear
10:55 PM 51.6 °F 51.3 °F 99% 30.01 in 10.0 mi Calm Calm - N/A   Clear
11:15 PM 51.3 °F 50.9 °F 99% 30.01 in 10.0 mi Calm Calm - N/A   Clear
11:35 PM 49.8 °F 49.3 °F 98% 30.01 in 10.0 mi Calm Calm - N/A   Clear
11:55 PM 49.1 °F 48.6 °F 98% 30.02 in 3.0 mi Calm Calm - N/A   Clear